Showing default

SUPERVIEW NEO-2 04, 62080

Orbit data source: Space-Track

SUPERVIEW NEO-2 04, 62080 is a payload satellite owned by Siwei (CN) in SSO that was launched on Sun, 24 Nov 2024 UTC via a CHANG ZHENG 2C launch vehicle from the Jiuquan Satellite Launch Center, China (JSC). Payload-class satellites include a variety of spacecraft equipped with specific instruments for various scientific and technological missions. These include communications satellites like Starlink; space stations such as the ISS; scientific satellites like the Hubble; Earth observation satellites from companies like Planet Labs, Umbra, and HawkEye 360; GPS; miniature CubeSats for education and research; and military/defense satellites.

Loading next visibility...
Identifier
62080, 2024-218C
Orbit
SSO
Last TLE update
3 days ago
Origin
Manufacturer
DFH
Mission
Operational Commercial Radar Imaging
Bus & Motor
SIWEI, Unknown motor
Mass
600 kg wet, ~500 kg dry
Launch date (UTC)
2024-11-24 (7 months ago)
Launch vehicle
CHANG ZHENG 2C
Launch site
Jiuquan Satellite Launch Center, China (JSC)
Object type
Payload
Rocket body
Debris
Shape & HBR
Box, 0.5 m
Radar Cross Section
0.375 m², Large (>1 m²)

Expand to show TLE details & history

TLE from 3 days ago
0 SUPERVIEW NEO-2 04
1 62080U 24218C   25160.90349103  .00001456  00000-0  71346-4 0  9997
2 62080  97.4395 168.5769 0001321 111.2397 248.8979 15.19720528 29905
Epoch: 2025-06-09T21:41Z
TLE epoch observation values (Epoch: 2025-06-09T21:41:01.624Z)
Latitude
-0.00006°
Longitude
-55.18788°
Altitude
510.101 km
Speed
7.609 km/s
True Right ascension
11h 14m 18s
True Declination
0° 00' 00"
Sunlit
Object was in daylight at epoch
Visualization orbit readout
Latitude
-72.99933°
Longitude
102.38434°
Altitude
534.339 km
Speed
7.594 km/s
Apparent Right ascension
15h 37m 31s
Apparent Declination
-67° 34' 50"
Sunlit
Object is in full shadow
Visualization observer readout
Local Sidereal Time
01:59:48
Azimuth
197.973° SSW
Elevation
-59.26°
Doppler factor
1
Orbital elements
Apogee altitude
504.561 km
Perigee altitude
502.743 km
Semi-major axis
6,881.789 km
Eccentricity
0.00013
Inclination
97.4395°
RAAN
168.5769°
Arg. of periapsis
111.2397°
True anomaly
Unknown
Mean anomaly
248.8979°
Eccentric anomaly
Unknown
Mean motion
3.80182 °/min
Orbital period
94.69 mins
BSTAR
0.000071346
Loading maneuver chart data...
Loading SW <> Apogee altitude chart data...
Loading historical data...
Loading historical data...
Loading historical data...
Loading historical data...
Loading historical data...
Loading historical data...
Loading historical data...
Other satellites on launch #218 in the year 2024 (2024-11-24 UTC)

SUPERVIEW NEO-2 04 Visibility forecast

Observer location: undefined°, undefined°

Span
Click to sort rows by Start time (UTC) header in descending order
Start Az.
Max El. time (UTC)
Max El. Az.
Max El.
End time (UTC)
End Az.
6 mins2025-06-13 00:05:25.168Z137.561° SSE2025-06-13 00:08:25.168Z65.779° ENE31.332°2025-06-13 00:11:25.168Z6.178° NNE
5 mins2025-06-13 13:10:25.168Z25.828° NE2025-06-13 13:12:25.168Z76.945° E39.97°2025-06-13 13:15:25.168Z177.616° S
|